User: anonymous   Login
Location: Newark
(52.4787°S, 179.0532°W)
Time: 22:26:22
(UTC+00:00)
Language:

Courier 1B Rocket - Orbit

View from above orbital plane
View from above orbital plane
View from above satellite
View from above satellite

Ground track
Ground track

The orbit data is extracted from the following two-line orbital elements,

1    59U 60013B   19321.82373513 +.00000100 +00000-0 +14949-4 0  9994
2    59 028.2487 230.4335 0189183 301.4837 056.7348 13.52972013917781
Epoch (UTC): 17 November 2019 19:46:10
Eccentricity: 0.0189183
inclination: 28.2487°
perigee height: 920 km
apogee height: 1202 km
right ascension of ascending node: 230.4335°
argument of perigee: 301.4837°
revolutions per day: 13.52972013
mean anomaly at epoch: 56.7348°
orbit number at epoch: 91778

The dashed part of the orbit path shows where the satellite is in the earth's shadow,  

DLR